Voltar ao catálogo

ARIANE 5 R/B

AtivoSSO
NORAD 36125·ROCKET BODY·🇫🇷 France

Lançado Dec 17, 2009 de Guiana Space Centre

Loading…

Próximas Passagens (próximas 24 horas)

TLE

ObsoletoSource: Mike McCants

Época: Aug 31, 2026, 22:08 UTC

1 36125U 09073B   26243.92283215 0.00000400  00000-0  52813-4 0    05
2 36125  98.0198 339.1810 0023072 295.6535  64.3464 14.79920846    05

Acompanhe ARIANE 5 R/B em tempo real com AllMySat

Download on the App Store